When you browse on this site, cookies collect data to enhance your experience and personalize the content and advertising you see.
Visit our Privacy Policy to learn more. By continuing to use the site, you agree to this use of cookies and data.
  • In Hungary
  • List of Countries
  • For 7 days
  • Water Temperature
  • Satellite Maps
  • Weather Map
  • News
  • Weather Widgets
  • user-avatar
    Login

    Hourly Weather Panik

    Today, 24 January, Thursday

    Time Temperature Precipitation Wind Pressure Humidity
    00:00 -23°C° 0 mm 2 mps 747 mmHg 85%
    01:00 -23°C° 0 mm 2 mps 747 mmHg 86%
    02:00 -24°C° 0 mm 3 mps 747 mmHg 87%
    03:00 -24°C° 0 mm 2 mps 746 mmHg 87%
    04:00 -25°C° 0 mm 3 mps 746 mmHg 88%
    05:00 -25°C° 0 mm 4 mps 746 mmHg 88%
    06:00 -25°C° 0 mm 4 mps 745 mmHg 88%
    07:00 -25°C° 0.1 mm 5 mps 745 mmHg 91%
    08:00 -25°C° 0.1 mm 5 mps 744 mmHg 93%
    09:00 -26°C° 0 mm 6 mps 744 mmHg 95%
    10:00 -24°C° 0.6 mm 7 mps 743 mmHg 95%
    11:00 -23°C° 0.6 mm 7 mps 743 mmHg 95%
    12:00 -22°C° 0.6 mm 8 mps 742 mmHg 96%
    13:00 -22°C° 0.6 mm 8 mps 741 mmHg 95%
    14:00 -21°C° 0.6 mm 8 mps 740 mmHg 95%
    15:00 -19°C° 0.6 mm 8 mps 739 mmHg 95%
    16:00 -19°C° 0.7 mm 8 mps 739 mmHg 95%
    17:00 -19°C° 0.7 mm 8 mps 738 mmHg 95%
    18:00 -19°C° 0.7 mm 7 mps 737 mmHg 95%
    19:00 -18°C° 0.8 mm 7 mps 737 mmHg 95%
    20:00 -16°C° 0.8 mm 6 mps 736 mmHg 95%
    21:00 -16°C° 0.8 mm 6 mps 735 mmHg 96%
    22:00 -14°C° 0.6 mm 5 mps 735 mmHg 96%
    23:00 -14°C° 0.6 mm 4 mps 734 mmHg 96%

    Tomorrow, 25 January, Friday

    Time Temperature Precipitation Wind Pressure Humidity
    00:00 -12°C° 0.6 mm 3 mps 734 mmHg 96%
    01:00 -12°C° 0.2 mm 3 mps 734 mmHg 97%
    02:00 -9°C° 0.2 mm 2 mps 734 mmHg 97%
    03:00 -9°C° 0.2 mm 2 mps 735 mmHg 97%
    04:00 -12°C° 0 mm 3 mps 735 mmHg 96%
    05:00 -15°C° 0 mm 4 mps 736 mmHg 95%
    06:00 -17°C° 0 mm 5 mps 737 mmHg 94%
    07:00 -19°C° 0 mm 5 mps 738 mmHg 94%
    08:00 -20°C° 0 mm 5 mps 739 mmHg 95%
    09:00 -21°C° 0 mm 5 mps 740 mmHg 95%
    10:00 -21°C° 0 mm 5 mps 740 mmHg 94%
    11:00 -19°C° 0 mm 4 mps 741 mmHg 94%
    12:00 -19°C° 0 mm 4 mps 742 mmHg 93%
    13:00 -19°C° 0 mm 4 mps 742 mmHg 93%
    14:00 -19°C° 0 mm 4 mps 743 mmHg 92%
    15:00 -19°C° 0 mm 4 mps 743 mmHg 92%
    16:00 -20°C° 0 mm 4 mps 744 mmHg 92%
    17:00 -22°C° 0 mm 4 mps 745 mmHg 93%
    18:00 -23°C° 0 mm 3 mps 745 mmHg 93%
    19:00 -23°C° 0 mm 3 mps 746 mmHg 92%
    20:00 -23°C° 0 mm 3 mps 746 mmHg 90%
    21:00 -24°C° 0 mm 3 mps 747 mmHg 89%
    22:00 -24°C° 0 mm 3 mps 747 mmHg 87%
    23:00 -23°C° 0 mm 2 mps 747 mmHg 86%

    Day after tomorrow, 26 January, Saturday

    Time Temperature Precipitation Wind Pressure Humidity
    00:00 -21°C° 0 mm 2 mps 747 mmHg 84%
    01:00 -21°C° 0 mm 2 mps 747 mmHg 83%
    02:00 -21°C° 0 mm 2 mps 748 mmHg 81%
    03:00 -21°C° 0 mm 2 mps 748 mmHg 80%
    04:00 -21°C° 0 mm 2 mps 748 mmHg 81%
    05:00 -21°C° 0 mm 2 mps 748 mmHg 81%
    06:00 -21°C° 0 mm 2 mps 748 mmHg 81%
    07:00 -21°C° 0 mm 2 mps 748 mmHg 83%
    08:00 -21°C° 0 mm 2 mps 748 mmHg 84%
    09:00 -23°C° 0 mm 3 mps 748 mmHg 86%
    10:00 -22°C° 0 mm 3 mps 748 mmHg 87%
    11:00 -20°C° 0 mm 4 mps 748 mmHg 88%
    12:00 -19°C° 0 mm 4 mps 747 mmHg 89%
    13:00 -20°C° 0 mm 5 mps 747 mmHg 90%
    14:00 -21°C° 0 mm 5 mps 746 mmHg 91%
    15:00 -21°C° 0 mm 5 mps 746 mmHg 92%
    16:00 -21°C° 0 mm 5 mps 746 mmHg 92%
    17:00 -23°C° 0 mm 6 mps 745 mmHg 92%
    18:00 -24°C° 0 mm 6 mps 745 mmHg 92%
    19:00 -23°C° 0 mm 6 mps 745 mmHg 89%
    20:00 -24°C° 0 mm 7 mps 744 mmHg 86%
    21:00 -23°C° 0 mm 7 mps 744 mmHg 83%
    22:00 -23°C° 0 mm 7 mps 744 mmHg 81%
    23:00 -23°C° 0 mm 7 mps 743 mmHg 80%

    27 January, Sunday

    Time Temperature Precipitation Wind Pressure Humidity
    00:00 -23°C° 0 mm 7 mps 743 mmHg 79%
    01:00 -22°C° 0 mm 6 mps 743 mmHg 81%
    02:00 -22°C° 0 mm 6 mps 742 mmHg 82%
    03:00 -23°C° 0 mm 6 mps 742 mmHg 84%
    04:00 -21°C° 0 mm 5 mps 741 mmHg 88%
    05:00 -21°C° 0 mm 5 mps 741 mmHg 91%
    06:00 -21°C° 0 mm 5 mps 740 mmHg 95%
    07:00 -19°C° 0 mm 5 mps 740 mmHg 95%
    08:00 -18°C° 0 mm 6 mps 740 mmHg 95%
    09:00 -17°C° 0 mm 6 mps 740 mmHg 95%
    10:00 -16°C° 0 mm 6 mps 739 mmHg 95%
    11:00 -15°C° 0 mm 7 mps 739 mmHg 94%
    12:00 -14°C° 0 mm 7 mps 738 mmHg 94%
    13:00 -14°C° 0 mm 7 mps 738 mmHg 94%
    14:00 -14°C° 0 mm 7 mps 737 mmHg 94%
    15:00 -13°C° 0 mm 8 mps 736 mmHg 94%
    16:00 -13°C° 0 mm 8 mps 736 mmHg 94%
    17:00 -13°C° 0 mm 7 mps 736 mmHg 94%
    18:00 -14°C° 0 mm 7 mps 736 mmHg 94%
    19:00 -15°C° 0 mm 8 mps 736 mmHg 94%
    20:00 -15°C° 0 mm 8 mps 735 mmHg 94%
    21:00 -13°C° 0 mm 8 mps 735 mmHg 94%
    22:00 -13°C° 0 mm 8 mps 735 mmHg 94%
    23:00 -13°C° 0 mm 7 mps 735 mmHg 93%

    28 January, Monday

    Time Temperature Precipitation Wind Pressure Humidity
    00:00 -13°C° 0 mm 7 mps 735 mmHg 93%
    01:00 -13°C° 0 mm 7 mps 735 mmHg 93%
    02:00 -13°C° 0 mm 7 mps 734 mmHg 94%
    03:00 -12°C° 0 mm 6 mps 734 mmHg 94%
    04:00 -11°C° 0 mm 6 mps 734 mmHg 94%
    05:00 -11°C° 0 mm 6 mps 734 mmHg 95%
    06:00 -11°C° 0 mm 6 mps 733 mmHg 95%
    07:00 -12°C° 0 mm 5 mps 733 mmHg 95%
    08:00 -12°C° 0 mm 5 mps 733 mmHg 96%
    09:00 -13°C° 0 mm 5 mps 733 mmHg 96%
    10:00 -12°C° 0 mm 5 mps 733 mmHg 96%
    11:00 -11°C° 0 mm 4 mps 733 mmHg 96%
    12:00 -10°C° 0 mm 4 mps 733 mmHg 96%
    13:00 -10°C° 0 mm 4 mps 733 mmHg 95%
    14:00 -9°C° 0 mm 3 mps 733 mmHg 95%
    15:00 -8°C° 0 mm 3 mps 734 mmHg 95%
    16:00 -9°C° 0 mm 3 mps 734 mmHg 95%
    17:00 -9°C° 0 mm 3 mps 734 mmHg 95%
    18:00 -10°C° 0 mm 3 mps 734 mmHg 96%
    19:00 -12°C° 0 mm 3 mps 735 mmHg 96%
    20:00 -10°C° 0 mm 2 mps 735 mmHg 96%
    21:00 -12°C° 0 mm 2 mps 735 mmHg 96%
    22:00 -12°C° 0 mm 2 mps 736 mmHg 96%
    23:00 -12°C° 0 mm 2 mps 736 mmHg 95%

    29 January, Tuesday

    Time Temperature Precipitation Wind Pressure Humidity
    00:00 -12°C° 0 mm 2 mps 736 mmHg 95%
    01:00 -10°C° 0 mm 2 mps 737 mmHg 95%
    02:00 -10°C° 0 mm 2 mps 737 mmHg 95%
    03:00 -10°C° 0 mm 2 mps 738 mmHg 95%
    04:00 -10°C° 0 mm 2 mps 738 mmHg 95%
    05:00 -10°C° 0 mm 2 mps 738 mmHg 95%
    06:00 -10°C° 0 mm 2 mps 738 mmHg 95%
    07:00 -10°C° 0 mm 2 mps 739 mmHg 95%
    08:00 -9°C° 0 mm 2 mps 739 mmHg 95%
    09:00 -9°C° 0 mm 2 mps 739 mmHg 95%
    10:00 -8°C° 0 mm 2 mps 740 mmHg 94%
    11:00 -8°C° 0 mm 2 mps 740 mmHg 93%
    12:00 -6°C° 0 mm 1 mps 740 mmHg 92%
    13:00 -6°C° 0 mm 1 mps 740 mmHg 93%
    14:00 -6°C° 0 mm 1 mps 740 mmHg 93%
    15:00 -6°C° 0 mm 0 mps 740 mmHg 94%
    16:00 -6°C° 0 mm 0 mps 741 mmHg 94%
    17:00 -7°C° 0 mm 0 mps 741 mmHg 94%
    18:00 -7°C° 0 mm 0 mps 741 mmHg 95%
    19:00 -8°C° 0 mm 1 mps 741 mmHg 95%
    20:00 -8°C° 0 mm 1 mps 741 mmHg 96%
    21:00 -9°C° 0 mm 2 mps 741 mmHg 96%
    22:00 -10°C° 0 mm 2 mps 741 mmHg 96%
    23:00 -10°C° 0 mm 2 mps 741 mmHg 97%
    Show more